FENGYUN 1C DEB

Satellite information

Favourite Embed

Satellite Type and Status

DEBRISIN ORBIT

Key statistics

Satellite FENGYUN 1C DEB at a glance.

Uptime

9555

Days in orbit

Revolutions

≈ 14.2

Per day

Orbit

SSO

Sun Synchronous Orbit

Inclination

98.7

Latest

Satellite identification and parameters

Extended collection of information and parameters for FENGYUN 1C DEB.

Object identification

Identified? True

Debris? True

Object name: FENGYUN 1C DEB

International designator: 1999-025DWM

Object number (NORAD): 36260

Object ID (CCSDS): 36260

Country: PEOPLES REPUBLIC OF CHINA (PRC)

Current information (Y/N): Y

RCS size: SMALL

Orbital parameters

Period: 101.75 minutes

Inclination: 98.6584 deg

SMA: 7219.651 km

Apoapsis: 852.997 km

Periapsis: 830.035 km

RAAN: 193.0171 deg

Eccentricy: 0.0015902

Argument of periapsis: 355.1582 deg

Mean anomaly: 4.9436 deg

Mean motion: 14.1523464 rev/day

Mean motion (dot): 0.00000196 rev/day2

B* drag term: 0.00012278 1/REarth

Two-line elements (TLE)

Creation date: July 5, 2025, 5:45 p.m.

Reference frame: TEME

Reference center: EARTH

Epoch: July 5, 2025, 5:40 a.m. UTC

TLE line 0: 0 FENGYUN 1C DEB

TLE line 1: 1 36260U 99025DWM 25186.23657701 .00000196 00000-0 12278-3 0 9994

TLE line 2: 2 36260 98.6584 193.0171 0015902 355.1582 4.9436 14.15234640855382

Live tracking on map

Real-time ground track for satellite FENGYUN 1C DEB.

In-orbit conjunctions

A list of the most updated potential collisions computed for object FENGYUN 1C DEB.

Target Orbit TCA Probability of collision Miss distance Type
CZ-4 DEB SSO 2025-06-25 15:20:46 0.0004059259 148.0 (m) DEBRIS
CZ-6A DEB LEO 2024-12-06 01:13:07 0.0004172363 679.0 (m) DEBRIS
METEOR 1-5 DEB LEO 2024-11-10 07:41:12 0.0002721393 841.0 (m) DEBRIS

Associated space launch

Chinese polar orbiting meteorological satellite

FENGYUN 1C DEB was lifted into orbit during the mission ‘Long March 4B | Feng Yun 1C’, on board a Long March 4B space rocket.

The launch took place on May 10, 1999, 1:33 a.m. from Launch Complex 7.

For more information about the launch, click the button.

Launch to space Long March 4B | Feng Yun 1C
Long March 4B | Feng Yun 1C

Agency: N/A

Status: Launch Successful

Launch date: May 10, 1999, 1:33 a.m. UTC

Rocket: Long March 4B

Launch pad: Launch Complex 7

Location: Taiyuan Satellite Launch Center, People's Republic of China

...

Latest news about this satellite

There are no fresh news available about this satellite. Check back as we update our databases every day.


Newsletter sign-up

Weekly statistics, charts and insights to help you stay on top of the space industry.